sat.trackr.live / text

‹ back to catalog

STARLINK-30411

NORAD 57828 · 2023-138W

PAYLOAD ACTIVE UNKNOWN

§ Identity

Operator
Country
US
Launch date
2023-09-09
Launch site
AFETR
Launch vehicle
Mass (kg)
RCS (m²)

Purposes: comms

External: N2YO · Heavens-Above · Gunter

§ Orbital elements

Epoch: 2026-05-25T02:04:16.830624Z

Period
94.27 min
Inclination
43.0036°
Eccentricity
0.0001013
Mean motion
15.27578468 rev/d
Perigee alt
482.4 km
Apogee alt
483.7 km
Semi-major
6,861.2 km
B*
2.2396e-5
RAAN
162.5855°
Arg perigee
276.0506°
Mean anomaly
84.0230°
Rev number
15,035

§ Raw data

STARLINK-304111 57828U 23138W   26145.08630591  .00000354  00000+0  22396-4 0  99942 57828  43.0036 162.5855 0001013 276.0506  84.0230 15.27578468150355

JSON: /api/v1/satellites/57828 · /tle

For live sub-satellite position, see the globe view (requires WebGL).

§ Visibility from observer

Set your observer location to see the next 7 days of passes ≥ 10°. The values pass through the URL so the page stays shareable.

No JS? Fill the form by hand. The geolocation button needs JavaScript.